EW7235 Weather Reports


time (UTC)temp
C
wind
direction
speed
KPH
gust
KPH
rain 1hr
cm
rain 24hr
cm
rain mn
cm
humidity
%
barometer
mb
20260504151035 16 254 8.0 14.5 0.00 0.00 0.00 58 1006.1
20260504150536 16 222 6.4 14.5 0.00 0.00 0.00 58 1006.1
20260504141034 11 264 6.4 12.9 0.00 0.00 0.00 72 1006.2
20260504140534 11 256 8.0 12.9 0.00 0.00 0.00 1006.2
20260504130530 7 248 6.4 11.3 0.00 0.00 0.00 79 1006.0
20260504110530 9 334 4.8 8.0 0.00 0.00 0.00 68 1005.9
20260504100529 8 297 3.2 4.8 0.00 0.00 0.00 73 1006.4
20260504081550 11 322 3.2 3.2 0.00 0.00 0.00 63 1006.7
20260504081033 11 304 1.6 6.4 0.00 0.00 0.00 63 1006.8
20260504080533 11 348 1.6 6.4 0.00 0.00 0.00 65 1006.9
20260504050533 13 16 9.7 14.5 0.00 0.00 0.00 57 1008.7
20260504045534 14 70 12.9 19.3 0.00 0.00 0.00 55 1008.6
20260504045030 14 67 14.5 17.7 0.00 0.00 0.00 55 1008.7
20260504044546 14 57 9.7 17.7 0.00 0.00 0.00 53 1008.8
20260504044031 14 56 8.0 22.5 0.00 0.00 0.00 53 1009.0
20260504043531 14 73 16.1 22.5 0.00 0.00 0.00 52 1008.7
20260504043052 14 81 9.7 16.1 0.00 0.00 0.00 51 1008.8
20260504042530 14 15 8.0 17.7 0.00 0.00 0.00 50 1009.8
20260504042035 14 20 12.9 17.7 0.00 0.00 0.00 49 1009.8
20260504041547 14 14 14.5 17.7 0.00 0.00 0.00 49 1009.9
20260504041037 15 341 8.0 16.1 0.00 0.00 0.00 46 1009.8
20260504040535 15 41 11.3 14.5 0.00 0.00 0.00 43 1009.7
20260504040042 16 33 9.7 19.3 0.00 0.00 0.00 42 1009.6
20260504035534 16 46 9.7 19.3 0.00 0.00 0.00 42 1009.5
20260504035038 15 37 9.7 19.3 0.00 0.00 0.00 44 1009.5
20260504034548 15 36 14.5 19.3 0.00 0.00 0.00 46 1009.2
20260504034035 16 20 8.0 12.9 0.00 0.00 0.00 43 1009.4
20260504033535 16 61 8.0 12.9 0.00 0.00 0.00 40 1009.4
20260504033046 16 61 9.7 14.5 0.00 0.00 0.00 40 1009.3
20260504032535 17 70 9.7 14.5 0.00 0.00 0.00 40 1009.2
20260504032039 17 70 9.7 12.9 0.00 0.00 0.00 40 1009.0
20260504031546 17 65 8.0 11.3 0.00 0.00 0.00 40 1009.3
20260504031034 17 62 8.0 11.3 0.00 0.00 0.00 40 1009.3
20260504030535 17 65 8.0 11.3 0.00 0.00 0.00 40 1009.3
20260504030046 17 66 8.0 9.7 0.00 0.00 0.00 40 1009.3
20260504025537 17 68 6.4 11.3 0.00 0.00 0.00 40 1009.1
20260504025039 17 71 8.0 12.9 0.00 0.00 0.00 40 1009.0
20260504024549 17 77 9.7 14.5 0.00 0.00 0.00 39 1008.7
20260504024038 17 87 11.3 16.1 0.00 0.00 0.00 38 1008.6
20260504023536 17 96 12.9 16.1 0.00 0.00 0.00 38 1008.5
20260504023043 17 98 12.9 17.7 0.00 0.00 0.00 37 1008.5
20260504022536 18 106 12.9 17.7 0.00 0.00 0.00 36 1008.4
20260504022037 18 108 14.5 17.7 0.00 0.00 0.00 36 1008.4
20260504021546 18 105 14.5 17.7 0.00 0.00 0.00 36 1008.2
20260504021041 18 109 12.9 16.1 0.00 0.00 0.00 36 1008.3
20260504020535 18 103 12.9 16.1 0.00 0.00 0.00 35 1008.1
20260504020124 18 102 14.5 16.1 0.00 0.00 0.00 35 1008.1
20260504015535 18 111 12.9 14.5 0.00 0.00 0.00 35 1008.1
20260504015035 19 106 11.3 12.9 0.00 0.00 0.00 34 1008.2
20260504014558 19 109 11.3 14.5 0.00 0.00 0.00 34 1008.3
20260504014035 20 103 11.3 14.5 0.00 0.00 0.00 33 1008.3
20260504013535 20 107 11.3 14.5 0.00 0.00 0.00 33 1008.3
20260504013050 20 113 9.7 11.3 0.00 0.00 0.00 32 1008.4
20260504012538 21 111 9.7 11.3 0.00 0.00 0.00 32 1008.6
20260504012035 21 110 6.4 9.7 0.00 0.00 0.00 32 1008.5
20260504011543 21 107 4.8 9.7 0.00 0.00 0.00 30 1008.6
20260504011035 21 109 4.8 9.7 0.00 0.00 0.00 30 1008.6
20260504010535 22 114 6.4 9.7 0.00 0.00 0.00 30 1008.6
20260504010048 22 125 4.8 9.7 0.00 0.00 0.00 30 1008.7
20260504005535 22 133 4.8 11.3 0.00 0.00 0.00 29 1008.7
20260504005035 22 121 4.8 11.3 0.00 0.00 0.00 29 1008.8
20260504004616 22 109 6.4 11.3 0.00 0.00 0.00 27 1008.9
20260504004035 22 144 4.8 9.7 0.00 0.00 0.00 28 1008.9
20260504003535 22 117 6.4 9.7 0.00 0.00 0.00 27 1009.0
20260504003050 23 128 6.4 9.7 0.00 0.00 0.00 28 1009.1
20260504002535 23 126 3.2 8.0 0.00 0.00 0.00 26 1009.1
20260504002035 23 147 4.8 9.7 0.00 0.00 0.00 27 1009.2
20260504001619 23 157 4.8 9.7 0.00 0.00 0.00 27 1009.4
20260504001035 23 125 3.2 6.4 0.00 0.00 0.00 26 1009.4
20260504000535 23 149 1.6 4.8 0.00 0.00 0.00 26 1009.3
20260504000045 23 136 1.6 4.8 0.00 0.00 0.00 25 1009.5
20260503235536 23 0 0.0 1.6 0.00 0.00 0.00 26 1009.5
20260503235038 22 0 0.0 4.8 0.00 0.00 0.00 28 1009.5
20260503234543 22 0 1.6 4.8 0.00 0.00 0.00 27 1009.6
20260503234038 22 240 1.6 8.0 0.00 0.00 0.00 27 1009.9
20260503233535 23 211 3.2 8.0 0.00 0.00 0.00 26 1009.7
20260503233047 23 196 3.2 8.0 0.00 0.00 0.00 26 1009.8
20260503232535 22 183 3.2 8.0 0.00 0.00 0.00 27 1010.0
20260503232035 22 225 4.8 9.7 0.00 0.00 0.00 27 1010.0
20260503231547 22 210 3.2 9.7 0.00 0.00 0.00 27 1010.0
20260503231035 22 219 6.4 9.7 0.00 0.00 0.00 28 1010.0
20260503230536 22 275 3.2 9.7 0.00 0.00 0.00 27 1010.2
20260503230106 22 274 4.8 9.7 0.00 0.00 0.00 27 1010.2
20260503225535 22 334 3.2 6.4 0.00 0.00 0.00 27 1010.2
20260503225035 22 53 3.2 11.3 0.00 0.00 0.00 26 1010.3
20260503224545 22 0 0.0 11.3 0.00 0.00 0.00 27 1010.3
20260503224035 22 279 3.2 11.3 0.00 0.00 0.00 27 1010.4
20260503223535 22 276 3.2 17.7 0.00 0.00 0.00 27 1010.6
20260503223045 22 14 6.4 17.7 0.00 0.00 0.00 27 1010.5
20260503222535 22 0 4.8 16.1 0.00 0.00 0.00 27 1010.6
20260503222035 22 261 6.4 14.5 0.00 0.00 0.00 27 1010.7
20260503221602 23 275 1.6 14.5 0.00 0.00 0.00 26 1010.8
20260503221034 23 0 6.4 14.5 0.00 0.00 0.00 26 1010.9
20260503220535 23 217 6.4 14.5 0.00 0.00 0.00 27 1010.9
20260503220053 23 135 6.4 19.3 0.00 0.00 0.00 27 1011.0
20260503215535 23 113 12.9 19.3 0.00 0.00 0.00 27 1011.0
20260503215033 23 82 6.4 14.5 0.00 0.00 0.00 27 1011.1
20260503214545 23 242 9.7 14.5 0.00 0.00 0.00 27 1011.2
20260503214038 23 247 6.4 12.9 0.00 0.00 0.00 27 1011.3
20260503213530 23 240 1.6 6.4 0.00 0.00 0.00 28 1011.3
20260503213046 23 248 0.0 12.9 0.00 0.00 0.00 28 1011.4
20260503212533 23 0 1.6 12.9 0.00 0.00 0.00 28 1011.5
20260503212035 23 351 0.0 12.9 0.00 0.00 0.00 27 1011.5
20260503211548 23 224 4.8 12.9 0.00 0.00 0.00 28 1011.5
20260503211034 23 255 3.2 14.5 0.00 0.00 0.00 27 1011.6
20260503210534 22 85 3.2 16.1 0.00 0.00 0.00 27 1011.6
20260503210051 23 71 4.8 16.1 0.00 0.00 0.00 27 1011.7
20260503205535 22 234 0.0 17.7 0.00 0.00 0.00 29 1011.8
20260503205034 22 71 0.0 20.9 0.00 0.00 0.00 29 1012.0
20260503204541 22 71 11.3 20.9 0.00 0.00 0.00 28 1012.0
20260503204033 21 59 16.1 27.4 0.00 0.00 0.00 29 1012.0
20260503203534 21 58 6.4 27.4 0.00 0.00 0.00 29 1012.1
20260503203059 21 44 11.3 25.7 0.00 0.00 0.00 29 1012.0
20260503202537 22 60 16.1 24.1 0.00 0.00 0.00 28 1012.2
20260503202036 22 88 11.3 17.7 0.00 0.00 0.00 29 1012.2
20260503201541 22 97 6.4 17.7 0.00 0.00 0.00 28 1012.2
20260503201033 22 82 6.4 14.5 0.00 0.00 0.00 28 1012.1
20260503200533 22 115 8.0 17.7 0.00 0.00 0.00 29 1012.1
20260503200041 22 59 12.9 17.7 0.00 0.00 0.00 28 1012.2
20260503195535 22 74 3.2 20.9 0.00 0.00 0.00 29 1012.2
20260503195033 22 69 12.9 20.9 0.00 0.00 0.00 28 1012.3
20260503194548 22 59 8.0 16.1 0.00 0.00 0.00 29 1012.2
20260503194033 21 303 3.2 14.5 0.00 0.00 0.00 31 1012.3
20260503193531 21 265 4.8 20.9 0.00 0.00 0.00 29 1012.4
20260503193047 21 37 14.5 24.1 0.00 0.00 0.00 29 1012.3
20260503192533 21 348 4.8 24.1 0.00 0.00 0.00 29 1012.5
20260503192034 21 31 14.5 24.1 0.00 0.00 0.00 28 1012.6
20260503191551 21 44 16.1 24.1 0.00 0.00 0.00 29 1012.5
20260503191034 21 34 1.6 14.5 0.00 0.00 0.00 29 1012.7
20260503190533 21 101 4.8 14.5 0.00 0.00 0.00 28 1012.7
20260503190057 21 63 3.2 12.9 0.00 0.00 0.00 29 1012.7
20260503185533 21 134 1.6 16.1 0.00 0.00 0.00 28 1012.8
20260503185034 21 322 8.0 24.1 0.00 0.00 0.00 29 1013.0
20260503184547 21 42 8.0 24.1 0.00 0.00 0.00 29 1013.0
20260503184034 21 19 12.9 30.6 0.00 0.00 0.00 29 1013.0
20260503183535 21 55 12.9 30.6 0.00 0.00 0.00 30 1013.1
20260503183047 21 40 19.3 30.6 0.00 0.00 0.00 29 1013.2
20260503182533 21 264 11.3 22.5 0.00 0.00 0.00 29 1013.2
20260503182030 21 79 8.0 30.6 0.00 0.00 0.00 30 1013.4
20260503181554 21 325 11.3 30.6 0.00 0.00 0.00 31 1013.5
20260503181030 20 333 19.3 30.6 0.00 0.00 0.00 31 1013.5
20260503180533 20 306 6.4 25.7 0.00 0.00 0.00 31 1013.6
20260503180052 20 63 16.1 25.7 0.00 0.00 0.00 29 1013.6
20260503175534 21 34 3.2 27.4 0.00 0.00 0.00 30 1013.7
20260503175034 21 63 14.5 27.4 0.00 0.00 0.00 30 1013.8
20260503174548 20 28 14.5 24.1 0.00 0.00 0.00 30 1013.9
20260503174034 20 86 8.0 24.1 0.00 0.00 0.00 31 1014.0
20260503173534 21 78 16.1 24.1 0.00 0.00 0.00 30 1014.2
20260503173041 20 78 16.1 27.4 0.00 0.00 0.00 31 1014.2
20260503172533 20 35 16.1 27.4 0.00 0.00 0.00 31 1014.3
20260503172033 20 31 12.9 29.0 0.00 0.00 0.00 32 1014.4
20260503171541 20 62 19.3 29.0 0.00 0.00 0.00 31 1014.5
20260503171035 20 39 14.5 32.2 0.00 0.00 0.00 33 1014.4
20260503170533 19 18 24.1 32.2 0.00 0.00 0.00 32 1014.5